Regional Weather Roundup
Issued by NWS

Home | Current Version | Previous Version | Graphics & Text | Print | Product List | Glossary On
Versions: 1 2 3 4 5 6 7 8 9 10 11 12 13 14 15 16 17 18 19 20 21 22 23 24 25 26 27 28 29 30 31 32 33 34 35 36 37 38 39 40 41 42 43 44 45 46 47 48 49 50
000
ASUS45 KCYS 291710
RWRWY

WYOMING REGIONAL WEATHER ROUNDUP
NATIONAL WEATHER SERVICE CHEYENNE WY
1100 AM MDT MON SEP 29 2014

NOTE:  "FAIR" INDICATES FEW OR NO CLOUDS BELOW 12,000 FEET
WITH NO SIGNIFICANT WEATHER AND/OR OBSTRUCTIONS TO VISIBILITY.

WYZ001-291800-
YELLOWSTONE NATIONAL PARK

CITY           SKY/WX    TMP DP  RH WIND       PRES   REMARKS
LK YELLOWSTONE   N/A     41  39  93 CALM      30.06S
W YELLOWSTONE  NOT AVBL

$$
WYZ002>013-054>058-071-098>099-291800-
NORTHERN WYOMING

CITY           SKY/WX    TMP DP  RH WIND       PRES   REMARKS
JACKSON        CLOUDY    43  43 100 SW7       30.03R
CODY           CLOUDY    50  45  81 S6        29.98F
GREYBULL       CLOUDY    53  48  83 VRB3      29.97F
WORLAND        PTSUNNY   53  47  79 E5        29.98F
SHERIDAN       CLOUDY    53  47  79 SE5       29.97F
BUFFALO        CLOUDY    49  47  93 S6        30.01S FOG
GILLETTE       CLOUDY    56  49  77 S18       29.99F
HULETT         FAIR      54  48  82 E8        30.01
NEWCASTLE      CLOUDY    52  52 100 S10       30.04

$$
WYZ014>020-022>026-101>103-291800-
CENTRAL WYOMING

CITY           SKY/WX    TMP DP  RH WIND       PRES   REMARKS
BIG PINEY      PTSUNNY   47  40  76 SW14      30.06S
PINEDALE       CLOUDY    45  41  87 S6        30.07S
DUBOIS         RAIN      43  41  93 SE3       30.02F
LANDER         MOSUNNY   53  46  77 VRB3      29.97F
RIVERTON       MOSUNNY   52  46  80 VRB5      29.99F
CASPER         CLOUDY    50  45  83 VRB3      30.02F
DOUGLAS        MOSUNNY   58  49  72 S6        30.03F

$$
WYZ021-027>030-104>119-291800-
SOUTHERN WYOMING

CITY           SKY/WX    TMP DP  RH WIND       PRES   REMARKS
EVANSTON       MOSUNNY   47  39  74 SW8       30.06F
KEMMERER       CLOUDY    45  41  87 SW6       30.07S
FORT BRIDGER   FAIR      49  42  78 W3        30.09S
ROCK SPRINGS   MOSUNNY   46  41  82 VRB3      30.06S
DIXON          FAIR      55  43  63 CALM      30.07F
RAWLINS        PTSUNNY   51  44  77 E5        30.06F
SARATOGA         N/A     55  39  54 SE7       30.07F
LARAMIE        MOSUNNY   58  39  49 S8        30.08F
CHEYENNE       MOSUNNY   60  44  55 VRB5      30.07F
TORRINGTON     CLOUDY    57  53  86 E5        30.01F
PINE BLUFFS    FAIR      61  52  72 NE7       30.04R

$$



USA.gov is the U.S. government's official web portal to all federal, state and local government web resources and services.